Home   Weather   Worb   Past weeks

Flag for Switzerland Past Weather in Worb, Bern, Switzerland — Yesterday and Last 2 Weeks

Now
63 °F

Clear.


Feels Like: 63 °F
Forecast: 51 / 80 °F
Wind: 1 mph from North

Location: Bern / Belp

Current Time: Aug 30, 2016 at 10:49:12 PM

Latest Report: Aug 30, 2016 at 10:20 PM


Visibility: 10 mi

Pressure: 30.15 "Hg (28.15 "Hg at 583m altitude)

Humidity: 88%

Dew Point: 59 °F

Location of WorbLocation

Past Weather in Worb — Graph

°F

Worb Temperature Yesterday

Maximum temperature yesterday: 73 °F (at 4:50 PM)
Minimum temperature yesterday: 64 °F (at 12:50 AM)
Average temperature yesterday: 68 °F

High & Low Weather Summary for the Past Weeks

 TemperatureHumidityPressure
High90 °F (Aug 25, 5:20 PM)100% (Aug 16, 3:50 AM)30.39 "Hg (Aug 16, 3:50 AM)
Low45 °F (Aug 22, 6:20 AM)33% (Aug 26, 7:20 PM)29.86 "Hg (Aug 17, 4:20 PM)
Average68 °F78%30.10 "Hg
* Reported Aug 15 9:20 PM — Aug 30 9:20 PM, Worb, Weather by CustomWeather, © 2016

Note: Actual official high and low records may vary slightly from our data, if they occured in-between our weather recording intervals... More about our weather records

Advertising

Worb Weather History for the Previous 24 Hours

Scroll right to see more
 ConditionsComfort  
Time TempWeatherWind HumidityBarometerVisibility
9:20 PM
Tue, Aug 30
64 °FClear.1 mph83%30.15 "Hg10 mi
8:50 PM68 °FSunny.3 mph73%30.15 "Hg10 mi
8:20 PM70 °FPassing clouds.3 mph69%30.15 "HgN/A
7:50 PM72 °FPassing clouds.7 mph65%30.12 "HgN/A
7:20 PM73 °FPassing clouds.7 mph61%30.12 "HgN/A
6:50 PM73 °FPassing clouds.7 mph61%30.12 "HgN/A
6:20 PM75 °FPassing clouds.7 mph57%30.12 "HgN/A
5:50 PM73 °FScattered clouds.7 mph61%30.12 "HgN/A
5:20 PM75 °FScattered clouds.5 mph61%30.12 "HgN/A
4:50 PM75 °FScattered clouds.8 mph57%30.15 "HgN/A
4:20 PM73 °FPartly sunny.8 mph61%30.15 "HgN/A
3:50 PM73 °FPartly sunny.9 mph61%30.15 "HgN/A
3:20 PM73 °FPartly sunny.8 mph61%30.15 "HgN/A
2:50 PM72 °FPartly sunny.10 mph65%30.15 "HgN/A
2:20 PM72 °FPartly sunny.9 mph65%30.18 "HgN/A
1:50 PM72 °FPartly sunny.8 mph65%30.18 "HgN/A
1:20 PM72 °FPartly sunny.12 mph65%30.15 "HgN/A
12:50 PM72 °FPartly sunny.10 mph65%30.15 "HgN/A
12:20 PM72 °FScattered clouds.8 mph61%30.15 "HgN/A
11:50 AM70 °FScattered clouds.7 mph64%30.18 "HgN/A
11:20 AM72 °FScattered clouds.7 mph65%30.18 "HgN/A
10:50 AM70 °FScattered clouds.6 mph69%30.18 "HgN/A
10:20 AM70 °FPassing clouds.6 mph69%30.18 "HgN/A
9:50 AM68 °FPassing clouds.6 mph73%30.18 "HgN/A
9:20 AM66 °FPassing clouds.3 mph73%30.18 "HgN/A
8:50 AM64 °FPartly sunny.1 mph78%30.18 "HgN/A
8:20 AM63 °FPartly sunny.2 mph83%30.18 "HgN/A
7:50 AM63 °FPartly sunny.5 mph77%30.18 "HgN/A
7:20 AM63 °FPassing clouds.5 mph77%30.15 "HgN/A
6:50 AM63 °FPassing clouds.3 mph73%30.15 "HgN/A
6:20 AM61 °FPassing clouds.5 mph83%30.15 "HgN/A
5:50 AM63 °FPassing clouds.3 mph73%30.15 "HgN/A
5:20 AM61 °FOvercast.2 mph94%30.15 "HgN/A
4:50 AM61 °FPartly cloudy.2 mph94%30.15 "HgN/A
4:20 AM61 °FPartly cloudy.1 mph94%30.15 "HgN/A
3:50 AM61 °FOvercast.2 mph94%30.15 "HgN/A
3:20 AM61 °FPartly cloudy.2 mph94%30.15 "HgN/A
2:50 AM61 °FPassing clouds.1 mph100%30.18 "HgN/A
2:20 AM63 °FOvercast.1 mph94%30.18 "HgN/A
1:50 AM63 °FPassing clouds.1 mph94%30.18 "HgN/A
1:20 AM63 °FOvercast.1 mph94%30.21 "HgN/A
12:50 AM63 °FOvercast.No wind94%30.21 "HgN/A
12:20 AM64 °FOvercast.No wind88%30.21 "HgN/A
11:50 PM
Mon, Aug 29
64 °FPartly cloudy.2 mph88%30.21 "HgN/A
11:20 PM64 °FPassing clouds.2 mph88%30.21 "HgN/A
10:50 PM64 °FPartly cloudy.2 mph88%30.18 "HgN/A
10:20 PM64 °FPassing clouds.5 mph83%30.21 "HgN/A
Weather by CustomWeather, © 2016

See weather overviewHow to use our weather pages